This demonstration page uses our WeatherBlox Daily Observations layout. Learn more.

Left ArrowRight Arrow

39.29038, -76.61219

Hourly Observations for July 20, 2020

Temp ( °F °C ) Dew Point ( °F °C ) Humidity (%) Winds ( mph kmh ) Pressure ( in mb ) Visibility ( mi km ) Precip ( " mm )
12:54 am 00:54 Partly Cloudy 84 28.9 76 24.4 77 77 SW 6 9 29.85 1011 10 16 0.00 0.00
1:54 am 01:54 Mostly Cloudy 82 27.8 75 23.9 79 79 WSW 3 6 29.85 1011 10 16 0.00 0.00
2:54 am 02:54 Mostly Cloudy 82 27.8 75 23.9 79 79 WSW 5 7 29.85 1011 10 16 0.00 0.00
3:54 am 03:54 Mostly Cloudy 81 27.2 74 23.3 79 79 W 6 9 29.87 1012 10 16 0.00 0.00
4:54 am 04:54 Cloudy 79 26.1 73 22.8 82 82 W 6 9 29.88 1012 10 16 0.00 0.00
5:54 am 05:54 Cloudy 83 28.3 70 21.1 65 65 W 6 9 29.90 1013 10 16 0.00 0.00
6:54 am 06:54 Mostly Cloudy 84 28.9 69 20.6 61 61 W 6 9 29.91 1013 10 16 0.00 0.00
7:54 am 07:54 Mostly Cloudy 86 30 68 20 55 55 WSW 6 9 29.91 1013 10 16 0.00 0.00
8:54 am 08:54 Mostly Cloudy 88 31.1 70 21.1 55 55 SW 6 9 29.93 1013 10 16 0.00 0.00
9:54 am 09:54 Mostly Cloudy 92 33.3 68 20 46 46 W 9 15 29.92 1013 10 16 0.00 0.00
10:54 am 10:54 Mostly Cloudy 91 32.8 67 19.4 45 45 W 13 20 29.92 1013 10 16 0.00 0.00
11:54 am 11:54 Mostly Cloudy 91 32.8 69 20.6 49 49 WSW 12 19 29.92 1013 10 16 0.00 0.00
12:54 pm 12:54 Mostly Cloudy 97 36.1 70 21.1 42 42 W 13 20 29.89 1012 10 16 0.00 0.00
1:54 pm 13:54 Mostly Cloudy 98 36.7 69 20.6 39 39 W 14 22 29.88 1012 10 16 0.00 0.00
2:54 pm 14:54 Mostly Cloudy 97 36.1 70 21.1 42 42 SW 7 11 29.88 1012 10 16 0.00 0.00
3:54 pm 15:54 Mostly Cloudy 99 37.2 69 20.6 38 38 WSW 10 17 29.87 1011 10 16 0.00 0.00
4:54 pm 16:54 Partly Cloudy 100 37.8 70 21.1 38 38 WSW 13 20 29.85 1011 10 16 0.00 0.00
5:54 pm 17:54 Mostly Cloudy 96 35.6 71 21.7 44 44 WSW 7 11 29.84 1010 10 16 0.00 0.00
6:54 pm 18:54 Mostly Cloudy 91 32.8 71 21.7 52 52 WSW 7 11 29.85 1011 10 16 0.00 0.00
7:54 pm 19:54 Mostly Cloudy 87 30.6 70 21.1 57 57 SSW 9 15 29.88 1012 10 16 0.00 0.00
8:54 pm 20:54 Mostly Cloudy 84 28.9 69 20.6 61 61 SW 7 11 29.90 1012 10 16 0.00 0.00
9:54 pm 21:54 Mostly Cloudy 83 28.3 69 20.6 63 63 W 6 9 29.91 1013 10 16 0.00 0.00
10:54 pm 22:54 Mostly Cloudy 82 27.8 69 20.6 65 65 W 3 6 29.92 1013 10 16 0.00 0.00
11:54 pm 23:54 Mostly Cloudy 82 27.8 70 21.1 67 67 NW 5 7 29.93 1014 10 16 0.00 0.00

Powered by AerisWeather